| time (UTC) | temp C | wind direction | speed KPH | gust KPH | rain 1hr cm | rain 24hr cm | rain mn cm | humidity % | barometer mb |
| 20260505012006 | 10 | 252 | 1.6 | 11.3 | 0.00 | 0.00 | 0.00 | 84 | 1015.4 |
| 20260505011505 | 10 | 223 | 3.2 | 9.7 | 0.00 | 0.00 | 0.00 | 84 | 1015.3 |
| 20260505011005 | 10 | 227 | 1.6 | 11.3 | 0.00 | 0.00 | 0.00 | 84 | 1015.2 |
| 20260505010504 | 10 | 243 | 0.0 | 12.9 | 0.00 | 0.00 | 0.00 | 84 | 1015.1 |
| 20260505010104 | 10 | 241 | 1.6 | 12.9 | 0.00 | 0.00 | 0.00 | 84 | 1015.1 |
| 20260505005504 | 10 | 235 | 1.6 | 11.3 | 0.00 | 0.00 | 0.00 | 84 | 1015.0 |
| 20260505005003 | 10 | 248 | 3.2 | 16.1 | 0.00 | 0.00 | 0.00 | 83 | 1015.0 |
| 20260505004502 | 10 | 244 | 3.2 | 16.1 | 0.00 | 0.00 | 0.00 | 83 | 1014.9 |
| 20260505004002 | 10 | 223 | 4.8 | 17.7 | 0.00 | 0.00 | 0.00 | 83 | 1014.9 |
| 20260505003506 | 10 | 279 | 1.6 | 11.3 | 0.00 | 0.00 | 0.00 | 83 | 1014.8 |
| 20260505003002 | 10 | 310 | 3.2 | 25.7 | 0.00 | 0.00 | 0.00 | 82 | 1014.7 |
| 20260505002502 | 10 | 150 | 3.2 | 25.7 | 0.00 | 0.00 | 0.00 | 82 | 1014.6 |
| 20260505002003 | 10 | 194 | 4.8 | 9.7 | 0.00 | 0.00 | 0.00 | 82 | 1014.6 |
| 20260505001502 | 10 | 231 | 3.2 | 20.9 | 0.00 | 0.00 | 0.00 | 82 | 1014.5 |
| 20260505001004 | 10 | 300 | 6.4 | 20.9 | 0.00 | 0.00 | 0.00 | 82 | 1014.5 |
| 20260505000501 | 11 | 263 | 3.2 | 19.3 | 0.00 | 0.00 | 0.00 | 82 | 1014.5 |
| 20260505000001 | 11 | 248 | 6.4 | 19.3 | 0.00 | 0.00 | 0.00 | 81 | 1014.5 |
| 20260504235503 | 11 | 304 | 4.8 | 17.7 | 0.00 | 0.00 | 0.00 | 81 | 1014.5 |
| 20260504235001 | 11 | 221 | 6.4 | 17.7 | 0.00 | 0.00 | 0.00 | 80 | 1014.3 |
| 20260504234601 | 11 | 163 | 4.8 | 19.3 | 0.00 | 0.00 | 0.00 | 79 | 1014.3 |
| 20260504234100 | 11 | 280 | 6.4 | 19.3 | 0.00 | 0.00 | 0.00 | 79 | 1014.2 |
| 20260504233559 | 11 | 249 | 3.2 | 17.7 | 0.00 | 0.00 | 0.00 | 78 | 1014.2 |
| 20260504233111 | 11 | 233 | 4.8 | 16.1 | 0.00 | 0.00 | 0.00 | 77 | 1014.2 |
| 20260504232559 | 12 | 209 | 3.2 | 25.7 | 0.00 | 0.00 | 0.00 | 77 | 1014.0 |
| 20260504232058 | 12 | 239 | 4.8 | 17.7 | 0.00 | 0.00 | 0.00 | 76 | 1014.0 |
| 20260504231601 | 12 | 215 | 6.4 | 17.7 | 0.00 | 0.00 | 0.00 | 75 | 1014.0 |
| 20260504231059 | 12 | 224 | 6.4 | 17.7 | 0.00 | 0.00 | 0.00 | 74 | 1013.9 |
| 20260504230557 | 12 | 191 | 6.4 | 16.1 | 0.00 | 0.00 | 0.00 | 73 | 1013.9 |
| 20260504230057 | 12 | 257 | 3.2 | 17.7 | 0.00 | 0.00 | 0.00 | 73 | 1013.8 |
| 20260504225557 | 13 | 184 | 4.8 | 19.3 | 0.00 | 0.00 | 0.00 | 72 | 1013.8 |
| 20260504225056 | 13 | 164 | 8.0 | 19.3 | 0.00 | 0.00 | 0.00 | 71 | 1013.9 |
| 20260504224602 | 13 | 244 | 4.8 | 20.9 | 0.00 | 0.00 | 0.00 | 71 | 1013.9 |
| 20260504224056 | 13 | 249 | 6.4 | 20.9 | 0.00 | 0.00 | 0.00 | 71 | 1013.8 |
| 20260504223555 | 13 | 209 | 4.8 | 20.9 | 0.00 | 0.00 | 0.00 | 70 | 1013.9 |
| 20260504223126 | 13 | 192 | 6.4 | 17.7 | 0.00 | 0.00 | 0.00 | 70 | 1013.6 |
| 20260504222555 | 13 | 138 | 4.8 | 24.1 | 0.00 | 0.00 | 0.00 | 69 | 1013.7 |
| 20260504222055 | 13 | 227 | 11.3 | 24.1 | 0.00 | 0.00 | 0.00 | 68 | 1013.8 |
| 20260504221555 | 14 | 197 | 6.4 | 22.5 | 0.00 | 0.00 | 0.00 | 66 | 1013.9 |
| 20260504221058 | 14 | 108 | 6.4 | 17.7 | 0.00 | 0.00 | 0.00 | 65 | 1013.8 |
| 20260504220554 | 15 | 250 | 4.8 | 20.9 | 0.00 | 0.00 | 0.00 | 64 | 1013.8 |
| 20260504220056 | 15 | 313 | 3.2 | 16.1 | 0.00 | 0.00 | 0.00 | 63 | 1013.7 |
| 20260504215554 | 15 | 189 | 9.7 | 19.3 | 0.00 | 0.00 | 0.00 | 62 | 1013.7 |
| 20260504215054 | 15 | 265 | 3.2 | 14.5 | 0.00 | 0.00 | 0.00 | 61 | 1013.7 |
| 20260504214553 | 15 | 273 | 1.6 | 24.1 | 0.00 | 0.00 | 0.00 | 60 | 1013.7 |
| 20260504214053 | 15 | 269 | 6.4 | 24.1 | 0.00 | 0.00 | 0.00 | 59 | 1013.7 |
| 20260504213552 | 15 | 234 | 8.0 | 22.5 | 0.00 | 0.00 | 0.00 | 59 | 1013.7 |
| 20260504213101 | 16 | 150 | 3.2 | 17.7 | 0.00 | 0.00 | 0.00 | 58 | 1013.6 |
| 20260504212653 | 16 | 165 | 8.0 | 17.7 | 0.00 | 0.00 | 0.00 | 58 | 1013.7 |
| 20260504212052 | 16 | 305 | 6.4 | 25.7 | 0.00 | 0.00 | 0.00 | 58 | 1013.6 |
| 20260504211552 | 16 | 175 | 8.0 | 25.7 | 0.00 | 0.00 | 0.00 | 57 | 1013.6 |
| 20260504211051 | 16 | 165 | 8.0 | 17.7 | 0.00 | 0.00 | 0.00 | 58 | 1013.6 |
| 20260504210551 | 16 | 225 | 8.0 | 17.7 | 0.00 | 0.00 | 0.00 | 58 | 1013.6 |
| 20260504210057 | 16 | 192 | 4.8 | 22.5 | 0.00 | 0.00 | 0.00 | 58 | 1013.7 |
| 20260504205554 | 16 | 242 | 9.7 | 20.9 | 0.00 | 0.00 | 0.00 | 57 | 1013.6 |
| 20260504205050 | 16 | 250 | 6.4 | 29.0 | 0.00 | 0.00 | 0.00 | 57 | 1013.7 |
| 20260504204550 | 16 | 153 | 9.7 | 29.0 | 0.00 | 0.00 | 0.00 | 57 | 1013.7 |
| 20260504204050 | 16 | 181 | 4.8 | 24.1 | 0.00 | 0.00 | 0.00 | 57 | 1013.6 |
| 20260504203550 | 16 | 200 | 8.0 | 24.1 | 0.00 | 0.00 | 0.00 | 56 | 1013.6 |
| 20260504203105 | 16 | 159 | 11.3 | 22.5 | 0.00 | 0.00 | 0.00 | 55 | 1013.5 |
| 20260504202550 | 16 | 258 | 8.0 | 22.5 | 0.00 | 0.00 | 0.00 | 55 | 1013.4 |
| 20260504202049 | 16 | 234 | 3.2 | 27.4 | 0.00 | 0.00 | 0.00 | 56 | 1013.4 |
| 20260504201554 | 16 | 298 | 9.7 | 27.4 | 0.00 | 0.00 | 0.00 | 56 | 1013.4 |
| 20260504201048 | 17 | 201 | 8.0 | 24.1 | 0.00 | 0.00 | 0.00 | 55 | 1013.5 |
| 20260504200547 | 17 | 205 | 9.7 | 22.5 | 0.00 | 0.00 | 0.00 | 55 | 1013.5 |
| 20260504200047 | 17 | 135 | 4.8 | 20.9 | 0.00 | 0.00 | 0.00 | 55 | 1013.6 |
| 20260504195547 | 17 | 193 | 9.7 | 22.5 | 0.00 | 0.00 | 0.00 | 55 | 1013.6 |
| 20260504195046 | 17 | 219 | 11.3 | 22.5 | 0.00 | 0.00 | 0.00 | 55 | 1013.5 |
| 20260504194546 | 17 | 249 | 8.0 | 25.7 | 0.00 | 0.00 | 0.00 | 55 | 1013.6 |
| 20260504194146 | 16 | 235 | 4.8 | 25.7 | 0.00 | 0.00 | 0.00 | 57 | 1013.6 |
| 20260504193549 | 16 | 223 | 4.8 | 22.5 | 0.00 | 0.00 | 0.00 | 58 | 1013.5 |
| 20260504193046 | 16 | 210 | 9.7 | 22.5 | 0.00 | 0.00 | 0.00 | 56 | 1013.6 |
| 20260504192544 | 16 | 193 | 6.4 | 25.7 | 0.00 | 0.00 | 0.00 | 57 | 1013.7 |
| 20260504192044 | 16 | 232 | 9.7 | 29.0 | 0.00 | 0.00 | 0.00 | 56 | 1013.5 |
| 20260504191554 | 17 | 220 | 9.7 | 30.6 | 0.00 | 0.00 | 0.00 | 54 | 1013.7 |
| 20260504191044 | 16 | 206 | 9.7 | 30.6 | 0.00 | 0.00 | 0.00 | 53 | 1013.7 |
| 20260504190543 | 16 | 213 | 6.4 | 25.7 | 0.00 | 0.00 | 0.00 | 53 | 1013.8 |
| 20260504190046 | 17 | 284 | 9.7 | 25.7 | 0.00 | 0.00 | 0.00 | 52 | 1013.8 |
| 20260504185542 | 17 | 175 | 6.4 | 27.4 | 0.00 | 0.00 | 0.00 | 54 | 1013.8 |
| 20260504185042 | 17 | 232 | 6.4 | 22.5 | 0.00 | 0.00 | 0.00 | 53 | 1013.8 |
| 20260504184541 | 17 | 296 | 8.0 | 30.6 | 0.00 | 0.00 | 0.00 | 54 | 1013.9 |
| 20260504184041 | 16 | 192 | 14.5 | 30.6 | 0.00 | 0.00 | 0.00 | 52 | 1013.7 |
| 20260504183540 | 17 | 338 | 8.0 | 24.1 | 0.00 | 0.00 | 0.00 | 54 | 1013.9 |
| 20260504183039 | 16 | 82 | 8.0 | 25.7 | 0.00 | 0.00 | 0.00 | 55 | 1014.1 |
| 20260504182543 | 17 | 279 | 8.0 | 25.7 | 0.00 | 0.00 | 0.00 | 53 | 1014.1 |
| 20260504182039 | 17 | 235 | 9.7 | 25.7 | 0.00 | 0.00 | 0.00 | 51 | 1014.3 |
| 20260504181544 | 17 | 173 | 9.7 | 24.1 | 0.00 | 0.00 | 0.00 | 51 | 1014.1 |
| 20260504181038 | 17 | 232 | 4.8 | 17.7 | 0.00 | 0.00 | 0.00 | 51 | 1014.3 |
| 20260504180537 | 17 | 250 | 6.4 | 29.0 | 0.00 | 0.00 | 0.00 | 51 | 1014.3 |
| 20260504180037 | 17 | 301 | 12.9 | 29.0 | 0.00 | 0.00 | 0.00 | 51 | 1014.4 |
| 20260504175537 | 17 | 257 | 12.9 | 29.0 | 0.00 | 0.00 | 0.00 | 51 | 1014.3 |
| 20260504175037 | 17 | 238 | 8.0 | 24.1 | 0.00 | 0.00 | 0.00 | 51 | 1014.4 |
| 20260504174536 | 17 | 244 | 9.7 | 24.1 | 0.00 | 0.00 | 0.00 | 51 | 1014.4 |
| 20260504174036 | 16 | 186 | 4.8 | 24.1 | 0.00 | 0.00 | 0.00 | 53 | 1014.4 |
| 20260504173537 | 17 | 249 | 9.7 | 24.1 | 0.00 | 0.00 | 0.00 | 49 | 1014.5 |
| 20260504173036 | 17 | 203 | 6.4 | 19.3 | 0.00 | 0.00 | 0.00 | 49 | 1014.5 |
| 20260504172538 | 17 | 216 | 6.4 | 29.0 | 0.00 | 0.00 | 0.00 | 49 | 1014.5 |
| 20260504172035 | 17 | 245 | 9.7 | 29.0 | 0.00 | 0.00 | 0.00 | 46 | 1014.4 |
| 20260504171537 | 17 | 217 | 11.3 | 24.1 | 0.00 | 0.00 | 0.00 | 49 | 1014.5 |
| 20260504171035 | 17 | 239 | 8.0 | 27.4 | 0.00 | 0.00 | 0.00 | 46 | 1014.4 |
| 20260504170534 | 17 | 188 | 6.4 | 30.6 | 0.00 | 0.00 | 0.00 | 46 | 1014.4 |
| 20260504151023 | 16 | 274 | 6.4 | 20.9 | 0.00 | 0.00 | 0.00 | 47 | 1015.4 |
| 20260504150524 | 16 | 296 | 8.0 | 19.3 | 0.00 | 0.00 | 0.00 | 45 | 1015.6 |
| 20260504141018 | 15 | 260 | 16.1 | 32.2 | 0.00 | 0.00 | 0.00 | 42 | 1015.8 |
| 20260504140516 | 15 | 219 | 11.3 | 32.2 | 0.00 | 0.00 | 0.00 | 46 | 1015.8 |
| 20260504130506 | 13 | 265 | 8.0 | 20.9 | 0.00 | 0.00 | 0.00 | 52 | 1016.1 |
| 20260504110544 | 10 | 219 | 6.4 | 12.9 | 0.00 | 0.00 | 0.00 | 71 | 1016.3 |
| 20260504100527 | 6 | 252 | 1.6 | 6.4 | 0.00 | 0.00 | 0.00 | 84 | 1015.9 |
| 20260504081514 | 2 | 227 | 0.0 | 3.2 | 0.00 | 0.00 | 0.00 | 91 | 1015.5 |
| 20260504081013 | 2 | 227 | 0.0 | 3.2 | 0.00 | 0.00 | 0.00 | 91 | 1015.6 |
| 20260504080513 | 2 | 227 | 0.0 | 3.2 | 0.00 | 0.00 | 0.00 | 91 | 1015.6 |
| 20260504050554 | 2 | 288 | 0.0 | 3.2 | 0.00 | 0.00 | 0.00 | 85 | 1014.9 |
| 20260504045552 | 2 | 288 | 0.0 | 3.2 | 0.00 | 0.00 | 0.00 | 85 | 1015.1 |
| 20260504045051 | 2 | 288 | 0.0 | 3.2 | 0.00 | 0.00 | 0.00 | 85 | 1015.1 |
| 20260504044601 | 2 | 288 | 0.0 | 3.2 | 0.00 | 0.00 | 0.00 | 85 | 1015.1 |
| 20260504044051 | 2 | 288 | 0.0 | 3.2 | 0.00 | 0.00 | 0.00 | 85 | 1015.1 |
| 20260504043549 | 3 | 288 | 0.0 | 3.2 | 0.00 | 0.00 | 0.00 | 84 | 1015.1 |
| 20260504043054 | 3 | 288 | 0.0 | 3.2 | 0.00 | 0.00 | 0.00 | 84 | 1015.0 |
| 20260504042546 | 3 | 288 | 0.0 | 3.2 | 0.00 | 0.00 | 0.00 | 83 | 1015.0 |
| 20260504042046 | 3 | 288 | 0.0 | 3.2 | 0.00 | 0.00 | 0.00 | 82 | 1015.0 |
| 20260504041546 | 3 | 288 | 0.0 | 3.2 | 0.00 | 0.00 | 0.00 | 81 | 1015.0 |
| 20260504041046 | 3 | 288 | 0.0 | 3.2 | 0.00 | 0.00 | 0.00 | 80 | 1015.0 |
| 20260504040543 | 3 | 288 | 0.0 | 3.2 | 0.00 | 0.00 | 0.00 | 80 | 1014.9 |
| 20260504040059 | 3 | 288 | 0.0 | 3.2 | 0.00 | 0.00 | 0.00 | 79 | 1014.8 |
| 20260504035540 | 4 | 288 | 0.0 | 3.2 | 0.00 | 0.00 | 0.00 | 78 | 1014.8 |
| 20260504035038 | 4 | 288 | 0.0 | 3.2 | 0.00 | 0.00 | 0.00 | 77 | 1014.8 |
| 20260504034555 | 5 | 288 | 0.0 | 3.2 | 0.00 | 0.00 | 0.00 | 77 | 1014.9 |
| 20260504034040 | 5 | 288 | 0.0 | 3.2 | 0.00 | 0.00 | 0.00 | 77 | 1014.8 |
| 20260504033539 | 5 | 288 | 0.0 | 0.0 | 0.00 | 0.00 | 0.00 | 76 | 1014.8 |
| 20260504033037 | 5 | 288 | 0.0 | 1.6 | 0.00 | 0.00 | 0.00 | 75 | 1014.7 |
| 20260504032537 | 5 | 288 | 0.0 | 1.6 | 0.00 | 0.00 | 0.00 | 75 | 1014.8 |
| 20260504032040 | 5 | 288 | 0.0 | 3.2 | 0.00 | 0.00 | 0.00 | 74 | 1014.7 |
| 20260504031536 | 6 | 288 | 0.0 | 3.2 | 0.00 | 0.00 | 0.00 | 73 | 1014.7 |
| 20260504031035 | 6 | 288 | 0.0 | 1.6 | 0.00 | 0.00 | 0.00 | 74 | 1014.7 |
| 20260504030535 | 5 | 288 | 0.0 | 3.2 | 0.00 | 0.00 | 0.00 | 72 | 1014.6 |
| 20260504030037 | 5 | 288 | 0.0 | 3.2 | 0.00 | 0.00 | 0.00 | 71 | 1014.6 |
| 20260504025534 | 5 | 321 | 0.0 | 1.6 | 0.00 | 0.00 | 0.00 | 69 | 1014.5 |
| 20260504025034 | 5 | 321 | 1.6 | 1.6 | 0.00 | 0.00 | 0.00 | 69 | 1014.5 |
| 20260504024536 | 5 | 321 | 0.0 | 1.6 | 0.00 | 0.00 | 0.00 | 69 | 1014.5 |
| 20260504024035 | 5 | 321 | 0.0 | 3.2 | 0.00 | 0.00 | 0.00 | 69 | 1014.6 |
| 20260504023535 | 5 | 321 | 0.0 | 3.2 | 0.00 | 0.00 | 0.00 | 67 | 1014.6 |
| 20260504023034 | 5 | 321 | 0.0 | 3.2 | 0.00 | 0.00 | 0.00 | 69 | 1014.6 |
| 20260504022534 | 5 | 321 | 0.0 | 3.2 | 0.00 | 0.00 | 0.00 | 68 | 1014.6 |
| 20260504022038 | 5 | 321 | 0.0 | 0.0 | 0.00 | 0.00 | 0.00 | 68 | 1014.6 |
| 20260504021535 | 5 | 321 | 0.0 | 0.0 | 0.00 | 0.00 | 0.00 | 68 | 1014.5 |
| 20260504021032 | 5 | 321 | 0.0 | 0.0 | 0.00 | 0.00 | 0.00 | 68 | 1014.6 |
| 20260504020532 | 5 | 321 | 0.0 | 0.0 | 0.00 | 0.00 | 0.00 | 65 | 1014.5 |
| 20260504020031 | 5 | 321 | 0.0 | 0.0 | 0.00 | 0.00 | 0.00 | 65 | 1014.5 |
| 20260504015531 | 5 | 321 | 0.0 | 0.0 | 0.00 | 0.00 | 0.00 | 64 | 1014.5 |
| 20260504015030 | 5 | 321 | 0.0 | 0.0 | 0.00 | 0.00 | 0.00 | 64 | 1014.4 |
| 20260504014530 | 5 | 321 | 0.0 | 0.0 | 0.00 | 0.00 | 0.00 | 64 | 1014.4 |
| 20260504014028 | 5 | 321 | 0.0 | 0.0 | 0.00 | 0.00 | 0.00 | 63 | 1014.3 |
| 20260504013527 | 5 | 321 | 0.0 | 0.0 | 0.00 | 0.00 | 0.00 | 62 | 1014.2 |
| 20260504013033 | 6 | 321 | 0.0 | 0.0 | 0.00 | 0.00 | 0.00 | 62 | 1014.2 |
| 20260504012530 | 6 | 321 | 0.0 | 0.0 | 0.00 | 0.00 | 0.00 | 60 | 1014.2 |